Weather History for Evansville, IN

Change the Weather History Date:

Thursday, March 21, 2013

  Actual Average Record
Temperature  
Mean Temperature 29 °F 48 °F  
Max Temperature 36 °F 59 °F 83 °F (2012)
Min Temperature 21 °F 37 °F 21 °F (1986)
Degree Days  
Heating Degree Days 36 17  
Month to date heating degree days 545 434  
Since 1 July heating degree days 3908 4008  
Cooling Degree Days 0 0  
Month to date cooling degree days 0 0  
Year to date cooling degree days 0 0  
Moisture  
Dew Point 13 °F    
Average Humidity 54    
Maximum Humidity 68    
Minimum Humidity 40    
Precipitation  
Precipitation T in 0.15 in 1.68 in (1952)
Month to date precipitation 3.28 2.76  
Year to date precipitation 12.81 9.03  
Snow  
Snow T in 0.00 in 1.90 in (1984)
Month to date snowfall T 0.8  
Since 1 July snowfall 12.3 11.5  
Snow Depth 0.00 in    
Sea Level Pressure  
Sea Level Pressure 30.10 in    
Wind  
Wind Speed 4 mph (NNW)    
Max Wind Speed 14 mph    
Max Gust Speed 17 mph    
Visibility 10 miles    
Events      
T = Trace of Precipitation, MM = Missing Value Source: NWS Daily Summary

Daily Weather History Graph

Daily Weather History Graph

Search for Another Location

Airport:

Trip Planner

Search our weather history database for the weather conditions in past years. The results will help you decide how hot, cold, wet, or windy it might be!

Date:

Astronomy

Mar. 21, 2013 Rise Set
Actual Time 6:51 AM CDT 7:03 PM CDT
Civil Twilight 6:25 AM CDT 7:29 PM CDT
Nautical Twilight 5:54 AM CDT 8:00 PM CDT
Astronomical Twilight 5:23 AM CDT 8:31 PM CDT
Moon 1:37 PM CDT (3/21) 3:08 AM CDT (3/21)
Length of Visible Light 13h 04m
Length of Day
12h 11m
Waxing Gibbous, 69% of the Moon is Illuminated
Mar 21
Waxing Gibbous
Mar 27
Full
Apr 2
Last Quarter
Apr 10
New
Apr 18
First Quarter

Hourly Weather History & Observations

Time (CDT) Temp. Windchill Dew Point Humidity Pressure Visibility Wind Dir Wind Speed Gust Speed Precip Events Conditions
12:54 AM 24.8 °F 19.1 °F 12.2 °F 59% 30.09 in 10.0 mi NW 4.6 mph - N/A   Clear
1:54 AM 25.0 °F 20.7 °F 12.0 °F 58% 30.10 in 10.0 mi WNW 3.5 mph - N/A   Clear
2:54 AM 24.1 °F - 12.9 °F 62% 30.10 in 10.0 mi Calm Calm - N/A   Clear
3:54 AM 24.1 °F 19.7 °F 12.9 °F 62% 30.08 in 10.0 mi NNW 3.5 mph - N/A   Clear
4:54 AM 21.9 °F 15.7 °F 10.9 °F 63% 30.08 in 10.0 mi NW 4.6 mph - N/A   Clear
5:54 AM 21.9 °F 14.5 °F 10.9 °F 63% 30.09 in 10.0 mi NW 5.8 mph - N/A   Clear
6:54 AM 21.9 °F 15.7 °F 10.0 °F 60% 30.09 in 10.0 mi NW 4.6 mph - N/A   Clear
7:54 AM 24.1 °F 15.2 °F 10.0 °F 55% 30.12 in 10.0 mi NW 8.1 mph - N/A   Clear
8:54 AM 24.1 °F 12.5 °F 9.0 °F 53% 30.13 in 10.0 mi NW 12.7 mph - N/A   Mostly Cloudy
9:20 AM 24.8 °F 14.6 °F 10.4 °F 54% 30.12 in 10.0 mi NNW 10.4 mph - N/A   Mostly Cloudy
9:54 AM 26.1 °F 17.6 °F 12.9 °F 58% 30.14 in 10.0 mi NNW 8.1 mph - N/A   Mostly Cloudy
10:47 AM 26.6 °F 19.1 °F 12.2 °F 55% 30.13 in 10.0 mi NW 6.9 mph - N/A   Mostly Cloudy
10:54 AM 26.1 °F 16.8 °F 12.9 °F 58% 30.15 in 10.0 mi WNW 9.2 mph - N/A   Overcast
11:54 AM 28.9 °F 25.2 °F 10.9 °F 47% 30.13 in 10.0 mi Variable 3.5 mph - N/A   Mostly Cloudy
12:54 PM 30.9 °F 27.5 °F 12.9 °F 47% 30.13 in 10.0 mi North 3.5 mph - 0.00 in   Scattered Clouds
1:54 PM 33.1 °F 27.7 °F 15.1 °F 48% 30.11 in 10.0 mi Variable 5.8 mph - N/A   Scattered Clouds
2:54 PM 33.1 °F 30.0 °F 12.9 °F 43% 30.09 in 10.0 mi Variable 3.5 mph - N/A   Clear
3:54 PM 34.0 °F 29.8 °F 14.0 °F 44% 30.07 in 10.0 mi NNE 4.6 mph - N/A   Clear
4:54 PM 35.1 °F 29.3 °F 14.0 °F 42% 30.05 in 10.0 mi NE 6.9 mph - N/A   Clear
5:54 PM 35.1 °F 31.0 °F 14.0 °F 42% 30.04 in 10.0 mi NE 4.6 mph - N/A   Clear
6:54 PM 30.9 °F 26.2 °F 15.1 °F 52% 30.06 in 10.0 mi North 4.6 mph - N/A   Clear
7:54 PM 30.0 °F - 15.1 °F 54% 30.08 in 10.0 mi Calm Calm - N/A   Clear
8:54 PM 27.0 °F 23.0 °F 15.1 °F 61% 30.09 in 10.0 mi North 3.5 mph - N/A   Clear
9:54 PM 27.0 °F 23.0 °F 18.0 °F 69% 30.08 in 10.0 mi NE 3.5 mph - N/A   Clear
10:54 PM 28.0 °F - 18.0 °F 66% 30.08 in 10.0 mi Calm Calm - N/A   Clear
11:54 PM 27.0 °F - 18.0 °F 69% 30.07 in 10.0 mi Calm Calm - N/A   Clear